www.pogodaiklimat.ru

Погода и климат >> Архив погоды >> Буркина-Фасо >> Ouahigouya


ПОГОДА в Ouahigouya

  • Прогноз погоды в Ouahigouya
  • Монитор погоды в Ouahigouya
  • Климат города

АРХИВ ПОГОДЫ в Ouahigouya

Время (UTC), дата Ветер
(напр.,м/с)
 
Видим.   Явления Облачность Т
(С)
Тd
(С)
f
(%)
Тe
(С)
Тes
(С)
Комфортность P
(гПа)
Po
(гПа)
Тmin
(С)
Tmax
(С)
R
(мм)
R24
(мм)
S
(см)
00 18.05 ЮЗ 2 10 км 9/0
[Ci sp]
+30.0 +17.9 48 +34 +34 очень
душно
1007.2 970.6
03 18.05 ЮЗ 3 10 км 9/0
[Ci sp]
+28.5 +18.8 56 +34 +34 очень
душно
1006.3 969.5
06 18.05 ЮЗ 3 10 км 9/0
[Ci sp]
+27.5 +17.8 55 +32 +32 очень
душно
1007.5 970.6 +27.4
09 18.05 ЮЗ 4 10 км 9/0
[Ci sp]
+30.8 +16.1 41 +34 +40 очень
душно
1008.8 971.9
12 18.05 ЮЗ 2 15 км 9/0
[Ac trans Ci sp]
+36.2 +13.6 26 +37 +49 очень
жарко
1008.1 971.5
15 18.05 З 1 15 км 9/0
[Ac trans Ci sp]
+39.0 +15.2 25 +40 +49 очень
душно
1005.8 969.4
18 18.05 Ю 1 10 км 9/0
[Ac trans Ci sp]
+37.6 +14.4 25 +38 +39 очень
жарко
1005.5 968.9 +40.1
21 18.05 штиль 0 10 км 9/0
[Ci sp]
+34.8 +17.5 36 +38 +38 очень
душно
1007.4 970.8
00 19.05 ЮЗ 4 10 км 9/0
[Ci sp]
+32.7 +16.0 37 +35 +35 душно 1007.8 971.4
03 19.05 ЮЗ 4 10 км 9/0
[Ci sp]
+31.7 +16.7 41 +35 +35 очень
душно
1006.5 970.2
06 19.05 ЮЗ 3 15 км 9/0
[Ci sp]
+29.9 +18.7 51 +35 +35 очень
душно
1007.3 970.8 +29.9
09 19.05 ЮЗ 4 10 км 9/0
[Ci sp]
+32.6 +19.9 47 +39 +44 очень
душно
1008.6 972.0
12 19.05 З 3 15 км 9/0
[Ci sp]
+37.4 +18.2 33 +41 +56 опасность
перегрева
1007.1 970.8
15 19.05 С 3 10 км 9/0
[Ci sp]
+40.5 +17.3 26 +43 +52 опасность
перегрева
1004.6 968.5
18 19.05 С 1 10 км 9/3 600 м
[Cu Sc Ci sp]
+39.2 +17.1 28 +42 +42 опасность
перегрева
1004.1 967.8 +41.1
21 19.05 Ю 1 10 км зарница 9/1 1200 м
[Cb cap Ac As Ci sp]
+36.1 +18.1 35 +40 +40 очень
душно
1005.5 969.1
00 20.05 Ю 3 10 км 9/0
[Ac As Ci sp]
+34.8 +13.4 28 +36 +36 душно 1005.9 969.8
03 20.05 Ю 5 10 км 9/0
[Ac As Ci sp]
+33.0 +15.8 36 +36 +36 очень
душно
1005.0 968.9
06 20.05 Ю 5 10 км 9/0
[Ac As Ci sp]
+31.1 +18.2 46 +36 +36 очень
душно
1006.3 970.0 +31.1
09 20.05 Ю 6 10 км 9/0
[Ci sp]
+34.0 +20.0 44 +40 +43 очень
душно
1007.5 971.1
12 20.05 З 3 10 км 9/0
[Ci sp]
+38.9 +18.3 30 +42 +57 опасность
перегрева
1005.7 969.6
15 20.05 З 2 10 км 9/1 600 м
[Sc Ci sp]
+41.6 +12.0 17 +41 +50 опасность
перегрева
1003.1 967.1
18 20.05 СЗ 3 10 км в посл. час дождь 9/1
[Cu med, cong Ac As Ci sp]
+35.0 +14.4 29 +36 +36 очень
жарко
1004.1 967.6 +42.7 2
21 20.05 ЮВ 6 10 км зарница 9/0
[Ac As Ci sp]
+32.6 +15.1 35 +35 +35 душно 1005.9 969.4
00 21.05 ЮВ 7 10 км 9/0
[Ac As Ci sp]
+32.4 +15.2 35 +34 +34 очень
жарко
1005.7 969.5
03 21.05 Ю 5 10 км 9/0
[Ac As Ci sp]
+32.3 +13.7 32 +33 +33 жарко 1004.7 968.7
06 21.05 ЮЗ 3 10 км 9/0
[Ac As Ci sp]
+29.1 +18.1 52 +34 +34 очень
душно
1006.2 969.6 +29.1 2
09 21.05 ЮЗ 6 15 км 9/0
[Ac trans Ci sp]
+31.2 +18.1 46 +36 +38 очень
душно
1008.9 972.2
12 21.05 ЮЗ 5 10 км 9/0
[Ci sp]
+36.4 +17.1 32 +39 +48 очень
душно
1007.6 971.2
15 21.05 ЮЗ 5 10 км 9/0
[Ci sp]
+38.4 +15.6 26 +40 +45 очень
душно
1004.9 968.7
18 21.05 ЮЗ 4 10 км 9/0
[Ci sp]
+37.0 +15.7 28 +39 +39 очень
душно
1004.7 968.2 +39.0
21 21.05 ЮЗ 2 10 км 9/0
[Ci sp]
+34.8 +15.7 32 +37 +37 очень
душно
1005.2 968.7
00 22.05 ЮЗ 2 10 км 9/0
[Ci sp]
+32.8 +17.0 39 +36 +36 очень
душно
1005.6 969.2
03 22.05 ЮЗ 2 10 км 9/0
[Ci sp]
+32.0 +16.5 39 +35 +35 очень
душно
1005.1 968.8
06 22.05 ЮЗ 3 10 км 9/0
[Ci sp]
+29.0 +20.9 62 +36 +36 очень
душно
1007.1 970.5 +29.0
09 22.05 ЮЗ 6 10 км 9/0
[Ci sp]
+32.2 +21.3 53 +40 +43 очень
душно
1007.9 971.4
12 22.05 ЮЗ 6 10 км 9/0
[Ac trans Ci sp]
+36.9 +18.2 33 +41 +47 опасность
перегрева
1006.9 970.6
15 22.05 В 1 10 км 9/0
[Ci sp]
+39.9 +16.2 25 +42 +54 опасность
перегрева
1004.6 968.3
18 22.05 З 1 10 км 9/0
[Ci sp]
+39.5 +16.0 25 +41 +41 опасность
перегрева
1003.9 967.6 +41.4
21 22.05 Ю 3 10 км 9/0
[Ci sp]
+36.6 +16.6 31 +39 +39 очень
душно
1005.5 969.1
00 23.05 Ю 2 10 км 9/0
[Ci sp]
+34.4 +18.0 38 +38 +38 очень
душно
1006.0 969.8
03 23.05 Ю 4 10 км 9/0
[Ci sp]
+32.5 +20.0 48 +39 +39 очень
душно
1005.2 969.0
06 23.05 ЮВ 3 10 км 9/0
[Ci sp]
+31.3 +20.4 52 +38 +38 очень
душно
1007.0 970.7 +31.3
09 23.05 Ю 6 10 км 9/0
[Cs]
+33.5 +21.2 49 +41 +45 опасность
перегрева
1009.4 973.0
12 23.05 ЮЗ 6 10 км 9/0
[Ci sp]
+36.2 +21.2 42 +44 +50 опасность
перегрева
1008.6 972.2
15 23.05 СВ 1 10 км 9/6 600 м
[Cu Sc Ci sp]
+40.2 +18.3 28 +44 +49 опасность
перегрева
1005.6 969.5
18 23.05 ЮЗ 3 10 км 9/1 900 м
[Cb cap Ci sp]
+37.7 +19.0 34 +42 +43 опасность
перегрева
1005.7 969.4 +40.7
21 23.05 ЮЗ 1 10 км 9/0
[Ci sp]
+34.7 +18.7 39 +39 +39 очень
душно
1008.5 971.9
00 24.05 ЮЗ 2 10 км зарница 9/1 900 м
[Cb cap Ci sp]
+33.4 +17.6 39 +37 +37 очень
душно
1009.1 972.7
03 24.05 ЮЗ 3 10 км зарница 9/1 900 м
[Cb cap Ac As Ci sp]
+32.0 +18.4 44 +37 +37 очень
душно
1008.6 972.3
06 24.05 ЮЗ 2 10 км 9/0
[Ci sp]
+29.4 +20.5 59 +36 +36 очень
душно
1008.4 971.8 +29.0
09 24.05 ЮЗ 5 10 км 9/0
[Ac As Ci sp]
+31.7 +21.2 54 +39 +43 очень
душно
1010.2 973.5
12 24.05 Ю 3 10 км 9/0
[Ac trans Cs]
+37.4 +19.9 36 +43 +57 опасность
перегрева
1007.5 971.2
15 24.05 ЮЗ 3 10 км 9/1 600 м
[Sc Ac trans Ci sp]
+39.8 +18.6 29 +43 +49 опасность
перегрева
1004.8 968.5
18 24.05 С 3 10 км 9/1 600 м
[Cb cap Ac trans Ci sp]
+38.4 +17.3 29 +41 +41 опасность
перегрева
1003.7 967.4 +41.5
21 24.05 СВ 1 10 км гроза, ливневой дождь 10/3 1200 м
[Cb cap Ac As]
+23.1 +21.0 88 +31 +31 очень
душно
1012.4 975.0

 

Местоположение метеостанции Ouahigouya (Буркина-Фасо): широта 13.57 долгота -2.42 высота над уровнем моря 336 м.

В архиве по умолчанию представлена погода в Ouahigouya за последнюю неделю. Архивные данные за месяц целиком и за предыдущие месяцы, начиная с января 2011 года, Вы можете получить, выбрав интересующий диапазон дат из раскрывающегося списка и нажав кнопку "Ввод!".


*Определитесь, кто Вы:
робот инопланетянин человек

Внимание! Время в таблицах - всемирное. Для получения местного времени необходимо прибавить поправку, которая в Ouahigouya равна 0 ч.

Смотрите также архив погоды в соседних городах и на ближайших метеорологических станциях:

Погода в Ouagadougou (Буркина-Фасо) (167 км)
Погода в Dedougou (Буркина-Фасо) (168 км)
Погода в Mopti (Мали) (210 км)
Погода в Boromo (Буркина-Фасо) (210 км)
Погода в San (Мали) (262 км)
Погода в Dori (Буркина-Фасо) (263 км)
Погода в Po (Буркина-Фасо) (302 км)
Погода в Navrongo (Гана) (330 км)
Погода в Bobo-Dioulasso (Буркина-Фасо) (337 км)
Погода в Fada N`Gourma (Буркина-Фасо) (348 км)

Пояснения к столбцам:

Ветер - указаны скорость ветра в м/с - средняя за 10 мин, порывы в срок и между сроками (в фигурных скобках) и направление, откуда дует ветер: С - северный, СВ - северо-восточный, В - восточный, ЮВ - юго-восточный, Ю - южный, ЮЗ - юго-западный, З - западный, СЗ - северо-западный.
Видимость - горизонтальная дальность видимости в метрах или километрах. При видимости от 1 до 10 км при отсутствии осадков обычно наблюдается дымка, при ухудшении видимости до 1 км и менее - туман. В сухую погоду видимость может ухудшаться дымом, пылью или мглою.
Явления - указаны атмосферные явления, наблюдавшиеся в срок или в последний час перед сроком; фигурными скобками обозначены явления, наблюдавшиеся между сроками (за 1-3 часа до срока); квадратными скобками обозначены град или гололедные отложения с указанием их диаметра в мм.
Облачность - указаны через наклонную черту общая и нижняя облачность в баллах и высота нижней границы облаков в метрах; квадратными скобками обозначены формы облаков: Ci - перистые, Cs - перисто-слоистые, Cc - перисто-кучевые, Ac - высококучевые, As - высокослоистые, Sc - слоисто-кучевые, Ns - слоисто-дождевые, Cu - кучевые, Cb - кучево-дождевые. Подробнее классификацию облаков см. в Атласе облаков (PDF).
T - Температура воздуха - температура, измеренная на высоте 2 м над землей.
Td - Температура точки росы - температура, при понижении до которой содержащийся в воздухе водяной пар достигнет насыщения.
f - Относительная влажность воздуха - влажноcть воздуха, измеренная на высоте 2 м над землей.
Te - Эффективная температура - температура, которую ощущает одетый по сезону человек в тени. Характеристика душности погоды. При расчете учитывается влияние влажности воздуха и скорости ветра на теплоощущения человека.
Tes - Эффективная температура на солнце - температура, которую ощущает человек, с поправкой на солнечный нагрев. Характеристика знойности погоды. Зависит от высоты солнца над горизонтом, облачности и скорости ветра. Ночью, в пасмурную погоду, а также при ветре 12 м/с и более поправка равна нулю.
P - Атмосферное давление - приведенное к уровню моря атмосферное давление.
Po - Атмосферное давление - измеренное на уровне метеостанции атмосферное давление.
Tmin - Минимальная температура - минимум температуры воздуха на высоте 2 м над землей.
Tmax - Максимальная температура - максимум температуры воздуха на высоте 2 м над землей.
R - Количество осадков - Количество выпавших осадков за период времени, мм. При наведении курсора мыши на число - период времени, за который выпало указанное количество осадков.
R24 - Количество осадков - Количество выпавших осадков за 24 часа, мм.
S - Снежный покров - Высота снежного покрова, см. При наведении курсора мыши на число - состояние снежного покрова и степень покрытия местности в баллах.